Find Starlink 33679

NORAD ID: 63460 Int'l Des: 2025-070 Owner: SPXS Country: US Constellation: starlink operational
LEOCIRCULAR

現在のビュー

3D地球を読み込み中...

About Starlink 33679

Starlink 33679 (NORAD 63460) is a starlink constellation satellite (v2 mini) launched Apr 6, 2025 by SPXS of US. It operates in LEO, CIRCULAR orbit with a mass of 575.00 kg.

次回通過

Passes for default location (London). Set your location on the main map for personalized predictions.

高度履歴

Loading altitude history...

軌道要素

1 63460U 25070A 26236.40886851 .00025271 00000-0 92446-3 0 9997
2 63460 43.0028 32.9274 0001116 253.5012 106.5717 15.27588538 78624
Epoch: Aug 24, 2026 • Age: 17 hours

現在のステータス

高度 491.0 km
遠地点 / 近地点 N/A
速度 7.62 km/s
衛星直下点 -31.40°S, 27.97°W
打ち上げ日 Apr 6, 2025
運用期間 1.3 years
タイプ internet

技術仕様

分類 Payload
質量 575.00 kg
乾燥質量 530.00 kg
総質量 575.00 kg
長さ 0.30 m
直径 4.10 m
スパン 29.00 m
形状 Box + pan
製造者 SPXS
バスタイプ Starlink V2MO
フェーズステータス In Orbit
所有者/国 SPXS/US

Most Searched